SL-14 R/B, 15822

Orbit data source: Space-Track

SL-14 R/B, 15822 is space debris in LEO originally from a launch on Fri, 14 Jun 1985 UTC launched from the Plesetsk Missile And Space Complex (PKMTR). Debris objects in space refer to the collection of defunct objects orbiting the Earth. Examples of debris include non-operational satellites, rocket bodies, and fragments generated from explosions, collisions, or faulty payload assembly.

Loading next visibility...
Identifier
15822, 1985-047B
Orbit
LEO
Country
Flag of CISCIS
Related business
Manufacturer
Yuzhnoe
Mission
Spacecraft
Bus & Motor
S5M, Unknown motor
Mass
1,600 kg wet, 1,600 kg dry
Launch date (UTC)
1985-06-14 (41 years ago)
Launch vehicle
Unknown
Launch site
Plesetsk Missile And Space Complex (PKMTR)
Object type
Payload
Rocket body
Debris
Shape & HBR
Unknown
Radar Cross Section
Large (>1 m²)

Expand to show TLE details & history
Last TLE update: 2 days ago

TLE from 2 days ago
0 SL-14 R/B
1 15822U 85047B   26171.35572230 -.00000023  00000-0 -46604-4 0  9997
2 15822  73.6225 161.2671 0024496  45.4269  62.3996 12.41278253858667
Epoch: 2026-06-20T08:32Z
TLE epoch observation values (Epoch: 2026-06-20T08:32:14.406Z)
Latitude
65.88313°
Longitude
-96.15293°
Altitude
1,503.283 km
Speed
7.123 km/s
True Right ascension
20h 01m 54s
True Declination
65° 46' 00"
Sunlit
Object was in daylight at epoch
Visualization orbit readout
Latitude
Unknown
Longitude
Unknown
Altitude
Unknown
Speed
Unknown
Apparent Right ascension
Unknown
Apparent Declination
Unknown
Sunlit
N/A
Visualization observer readout
Local Sidereal Time
23:08:23
Azimuth
Unknown
Elevation
Unknown
Doppler factor
Unknown
Orbital elements
Apogee altitude
1,518.362 km
Perigee altitude
1,479.77 km
Semi-major axis
7,877.203 km
Eccentricity
0.00245
Inclination
73.6225°
RAAN
161.2671°
Arg. of periapsis
45.4269°
True anomaly
62.64871°
Mean anomaly
62.3996°
Eccentric anomaly
62.52412°
Mean motion
3.10445 °/min
Orbital period
115.96 mins
BSTAR
-0.000046604
Loading maneuver chart data...
Computing Atmospheric mass density...
Loading historical data...
Loading historical data...
Loading historical data...
Loading historical data...
Loading historical data...
Loading historical data...
Loading historical data...
Other satellites on launch #47 in the year 1985 (1985-06-14 UTC)

Documentation

Showing up to 5 results
|